User: anonymous   Login
Location: Oroua River
(40.4333°S, 175.4333°E)
Time: 06:50:20
(UTC+00:00)
Language:

deb Kosmos-1275 - Orbit

View from above orbital plane
View from above orbital plane
View from above satellite
View from above satellite

Ground track
Ground track

The orbit data is extracted from the following two-line orbital elements,

1 12714U 81053BJ  24197.85677031  .00000959  00000-0  12249-2 0  9995
2 12714  82.9750 121.2229 0125720 300.9757  57.9087 13.58964804121609
Epoch (UTC): 15 July 2024 20:33:44
Eccentricity: 0.0125720
inclination: 82.9750°
perigee height: 946 km
apogee height: 1133 km
right ascension of ascending node: 121.2229°
argument of perigee: 300.9757°
revolutions per day: 13.58964804
mean anomaly at epoch: 57.9087°
orbit number at epoch: 12160

The dashed part of the orbit path shows where the satellite is in the earth's shadow,  

DLR